Skagway, AK

2:21 PM AKST on February 23, 2018 (GMT -0900)
Skagway

Weather History for PAGY - November, 2010

Change the Weather History Date:

Thursday, November 11, 2010

  Actual Average Record
Temperature  
Mean Temperature 38 °F -  
Max Temperature 43 °F 38 °F 48 °F (2016)
Min Temperature 34 °F 31 °F -1 °F (1989)
Degree Days  
Heating Degree Days 26    
Moisture  
Dew Point 35 °F    
Average Humidity 89    
Maximum Humidity 97    
Minimum Humidity 76    
Precipitation  
Precipitation 0.12 in - - ()
Sea Level Pressure  
Sea Level Pressure 29.73 in    
Wind  
Wind Speed 2 mph (SSE)    
Max Wind Speed 30 mph    
Max Gust Speed 39 mph    
Visibility 10 miles    
Events Rain    
Averages and records for this station are not official NWS values.
T = Trace of Precipitation, MM = Missing Value Source: NWS Daily Summary

Daily Weather History Graph

Daily Weather History Graph

Search for Another Location

Airport or City:

Trip Planner

Search our weather history database for the weather conditions in past years. The results will help you decide how hot, cold, wet, or windy it might be!

Date:

Astronomy

Nov. 11, 2010 Rise Set
Actual Time 7:46 AM AKST 3:43 PM AKST
Civil Twilight 6:59 AM AKST 4:30 PM AKST
Nautical Twilight 6:09 AM AKST 5:20 PM AKST
Astronomical Twilight 5:21 AM AKST 6:08 PM AKST
Moon 12:58 PM AKST (11/11) 8:54 PM AKST (11/11)
Length of Visible Light 9h 30m
Length of Day
7h 56m
Waxing Crescent, 33% of the Moon is Illuminated
Nov 11
Waxing Crescent
Nov 13
First Quarter
Nov 21
Full
Nov 28
Last Quarter
Dec 5
New

Hourly Weather History & Observations

Time (AKST) Temp. Windchill Dew Point Humidity Pressure Visibility Wind Dir Wind Speed Gust Speed Precip Events Conditions
12:53 AM 35.1 °F - 34.0 °F 96% 29.91 in 10.0 mi Calm Calm - 0.00 in Rain Light Rain
1:53 AM 34.0 °F - 33.1 °F 96% 29.89 in 9.0 mi Calm Calm - 0.01 in   Overcast
2:53 AM 34.0 °F - 33.1 °F 96% 29.85 in 10.0 mi Calm Calm - N/A   Overcast
3:53 AM 34.0 °F - 33.1 °F 96% 29.82 in 10.0 mi Calm Calm - N/A   Overcast
4:53 AM 34.0 °F - 33.1 °F 96% 29.80 in 10.0 mi Calm Calm - N/A   Overcast
5:53 AM 34.0 °F - 33.1 °F 96% 29.79 in 10.0 mi Calm Calm - N/A   Overcast
6:53 AM 34.0 °F - 33.1 °F 96% 29.76 in 10.0 mi Calm Calm - N/A   Overcast
7:53 AM 34.0 °F - 33.1 °F 96% 29.73 in 10.0 mi Calm Calm - N/A   Overcast
8:53 AM 35.1 °F - 33.1 °F 92% 29.73 in 10.0 mi Calm Calm - N/A   Overcast
9:53 AM 39.0 °F 36.8 °F 32.0 °F 76% 29.70 in 10.0 mi Variable 3.5 mph - N/A   Overcast
10:53 AM 39.0 °F 35.7 °F 33.1 °F 79% 29.70 in 10.0 mi NE 4.6 mph - N/A   Overcast
11:25 AM 39.2 °F - 33.8 °F 81% 29.69 in 10.0 mi Calm Calm - 0.00 in Rain Light Rain
11:38 AM 39.2 °F 37.0 °F 33.8 °F 81% 29.69 in 10.0 mi NE 3.5 mph - 0.00 in Rain Light Rain
11:53 AM 39.0 °F 36.8 °F 33.1 °F 79% 29.68 in 10.0 mi NE 3.5 mph - 0.00 in   Overcast
12:53 PM 39.0 °F - 34.0 °F 82% 29.68 in 10.0 mi Calm Calm - 0.00 in Rain Light Rain
1:01 PM 39.2 °F - 33.8 °F 81% 29.66 in 10.0 mi Calm Calm - 0.00 in Rain Light Rain
1:53 PM 37.9 °F - 36.0 °F 93% 29.67 in 10.0 mi Calm Calm - 0.00 in Rain Light Rain
2:45 PM 37.4 °F - 35.6 °F 93% 29.66 in 10.0 mi Calm Calm - 0.01 in Rain Light Rain
2:53 PM 37.0 °F - 36.0 °F 96% 29.67 in 10.0 mi Calm Calm - 0.01 in Rain Light Rain
3:01 PM 37.4 °F - 35.6 °F 93% 29.67 in 10.0 mi Calm Calm - 0.00 in Rain Light Rain
3:53 PM 37.9 °F 35.5 °F 35.1 °F 89% 29.69 in 9.0 mi SSW 3.5 mph - 0.02 in Rain Light Rain
3:56 PM 37.4 °F 32.8 °F 35.6 °F 93% 29.69 in 9.0 mi SSW 5.8 mph - 0.01 in Rain Light Rain
4:22 PM 37.4 °F 31.4 °F 35.6 °F 93% 29.70 in 8.0 mi SSW 8.1 mph - 0.03 in Rain Light Rain
4:29 PM 37.4 °F 30.8 °F 33.8 °F 87% 29.71 in 8.0 mi SSW 9.2 mph - 0.04 in Rain Light Rain
4:53 PM 36.0 °F - 35.1 °F 97% 29.72 in 10.0 mi Calm Calm - 0.04 in Rain Light Rain
5:13 PM 35.6 °F 29.9 °F 33.8 °F 93% 29.72 in 10.0 mi East 6.9 mph - 0.00 in   Overcast
5:43 PM 37.4 °F - 35.6 °F 93% 29.72 in 10.0 mi Calm Calm - 0.00 in   Overcast
5:53 PM 37.0 °F 33.3 °F 35.1 °F 93% 29.73 in 10.0 mi ESE 4.6 mph - 0.00 in   Overcast
6:53 PM 37.9 °F 32.1 °F 35.1 °F 89% 29.72 in 10.0 mi East 8.1 mph - N/A   Overcast
7:53 PM 41.0 °F 33.1 °F 37.0 °F 86% 29.72 in 10.0 mi South 15.0 mph 21.9 mph 0.01 in Rain Light Rain
8:53 PM 39.9 °F - 36.0 °F 86% 29.74 in 10.0 mi Calm Calm - 0.01 in Rain Light Rain
9:53 PM 41.0 °F 34.3 °F 36.0 °F 82% 29.74 in 10.0 mi South 11.5 mph 16.1 mph 0.01 in Rain Light Rain
10:53 PM 43.0 °F 32.5 °F 37.0 °F 80% 29.72 in 10.0 mi SSW 29.9 mph 35.7 mph 0.01 in   Overcast
11:53 PM 42.1 °F 32.6 °F 37.9 °F 85% 29.73 in 10.0 mi SSW 23.0 mph 39.1 mph 0.00 in Rain Light Rain